GEFSNGP_500_meanwind_102.txt.gz
Wind_Speed
7 8 9 10 11 12 13 13 14 15 16 17 17 18 18 18 18 18 17 17 17 17 17 18 18 19 20 20 20 20 19 19 18 17 16 15 14 13 12 11 11 11 11 11
9 10 11 12 13 14 15 15 16 17 18 19 19 19 19 19 19 19 18 18 19 18 18 19 19 20 21 21 22 22 21 21 20 19 18 17 16 14 13 12 12 11 11 11
11 12 13 13 14 16 17 17 18 18 19 20 20 20 21 21 21 21 20 21 21 20 20 20 21 21 22 22 23 23 23 23 22 21 20 19 18 16 15 14 13 12 12 12
13 14 15 15 17 18 19 19 20 20 21 22 22 21 22 22 22 23 23 23 23 22 22 22 23 23 23 24 24 25 25 25 25 24 23 22 20 19 18 16 15 14 14 13
17 18 18 18 19 21 22 23 23 24 24 24 25 25 25 25 25 25 25 25 25 25 25 25 25 25 25 25 25 26 26 26 27 27 26 25 23 22 21 19 17 16 15 15
20 22 22 22 22 24 25 26 26 27 27 27 28 29 28 28 28 28 28 28 28 28 28 28 28 28 28 27 28 27 28 28 29 29 28 27 26 25 23 22 20 19 17 16
24 26 27 27 27 27 29 30 30 31 31 31 32 33 33 33 33 32 32 32 32 31 31 31 31 31 31 30 30 30 30 30 31 30 30 30 29 28 26 25 23 22 20 19
28 29 30 32 32 33 34 35 35 36 36 36 36 37 37 38 38 38 37 36 36 35 35 35 35 34 34 34 34 33 33 33 33 32 32 32 32 30 29 28 26 25 23 21
32 33 35 36 36 37 38 39 39 40 41 41 41 41 41 42 42 42 42 41 40 40 39 38 38 38 37 37 37 37 36 35 35 34 34 34 34 33 31 30 29 27 26 24
36 37 38 39 40 40 41 42 43 44 45 45 46 46 46 46 46 47 47 46 46 44 43 42 42 42 41 40 41 40 40 39 38 37 36 36 36 35 34 32 31 30 28 27
39 40 41 42 42 43 44 45 46 47 48 48 49 49 50 50 50 50 51 51 50 49 48 46 46 45 45 45 44 44 43 42 41 40 39 38 37 37 36 34 33 32 31 29
42 43 45 44 45 46 47 48 49 50 51 52 52 53 54 54 54 54 54 54 54 53 52 50 49 48 48 48 48 47 46 45 44 43 42 41 40 39 38 37 35 34 33 32
45 46 47 48 49 50 51 52 53 54 55 55 56 57 57 57 57 57 57 57 57 55 54 53 52 51 51 51 50 49 48 48 47 46 44 43 42 41 40 39 38 36 35 34
48 50 51 52 53 54 54 55 56 57 58 59 59 60 60 60 60 59 58 58 57 56 55 54 52 52 51 51 52 51 51 50 49 48 47 46 45 43 42 41 40 38 37 36
51 53 54 55 56 57 57 58 59 59 60 60 61 61 61 61 61 60 58 57 55 54 53 53 51 51 51 51 51 52 52 52 51 50 50 49 48 46 44 43 42 40 39 38
54 55 56 57 58 59 59 60 60 61 61 62 62 62 62 61 60 58 57 55 53 53 52 52 52 51 51 51 51 52 52 52 53 52 52 51 50 49 47 45 44 43 41 40
56 57 58 58 59 59 59 60 61 61 61 61 61 60 59 58 57 56 55 54 53 52 52 52 52 52 51 51 51 52 53 53 53 54 53 53 52 51 49 47 46 45 43 42
58 58 59 59 59 59 58 59 59 59 60 59 58 57 56 55 54 53 52 51 50 50 50 50 51 51 50 50 51 51 52 52 53 54 54 54 52 52 51 50 48 47 46 45
57 57 57 58 58 58 58 58 57 57 57 57 56 55 54 53 52 51 51 49 49 48 48 48 48 49 49 49 50 50 51 52 52 53 54 54 53 52 52 51 50 49 48 48
56 56 57 57 57 57 57 57 56 56 55 55 55 55 54 53 52 51 50 48 47 47 46 47 46 46 46 47 48 48 49 50 51 52 53 53 53 52 51 51 51 50 49 49
55 55 55 56 56 56 56 56 56 55 55 55 55 54 52 51 51 50 49 47 46 45 44 43 43 43 44 44 45 46 47 48 50 51 52 52 53 52 51 51 51 50 50 49
55 54 54 54 55 55 55 55 55 55 54 53 52 51 50 49 49 48 46 45 43 42 40 40 40 41 41 42 43 43 44 45 48 49 50 51 52 52 51 50 50 49 49 48
54 54 54 54 54 54 53 53 53 52 51 50 49 48 47 47 46 46 44 42 41 40 38 38 38 39 39 39 40 41 41 41 44 46 48 49 50 51 51 50 49 49 48 48
54 54 53 53 53 52 51 50 50 49 48 47 46 45 45 44 42 41 41 39 38 37 37 36 37 37 37 37 37 39 39 40 41 44 46 47 48 49 49 49 49 49 49 48
52 52 52 52 51 49 48 48 46 45 44 43 43 42 42 42 41 39 38 37 36 35 35 35 35 35 35 35 35 35 36 37 39 41 43 45 47 47 47 48 48 48 48 48
51 50 50 49 48 47 46 45 44 43 42 41 40 40 40 40 39 38 36 35 34 33 33 33 34 34 33 33 33 33 34 35 36 38 40 41 43 45 45 46 47 47 47 48
47 46 45 45 44 44 44 43 42 41 40 39 38 38 38 37 36 35 34 32 31 31 31 31 31 31 31 31 31 31 32 34 34 35 37 39 40 42 44 45 46 47 46 46

GEFSNGP_500_meanwind_108.txt.gz
Wind_Speed
2 2 3 5 6 6 7 7 8 9 10 11 12 13 14 14 15 15 16 16 16 17 17 18 19 20 20 20 20 21 21 21 22 22 22 22 22 21 21 20 20 18 17 16
3 4 4 5 6 7 8 8 9 10 11 13 13 14 15 16 17 17 18 18 18 18 19 20 20 21 22 22 23 23 23 23 23 23 23 24 24 23 23 23 22 21 19 18
5 6 7 7 8 9 9 10 11 12 13 15 15 16 17 18 19 20 21 21 21 21 21 22 22 23 23 24 25 25 26 26 26 26 26 25 25 25 25 25 24 23 22 21
7 8 9 9 10 11 12 12 13 14 15 16 18 19 20 20 21 22 23 25 25 26 26 27 27 26 27 27 27 27 28 29 29 29 28 28 28 27 27 27 27 26 25 24
10 11 11 12 12 13 14 15 16 17 18 19 20 22 23 24 25 26 27 28 29 30 30 31 31 31 31 31 31 31 31 31 32 32 32 32 31 31 30 30 29 29 28 27
13 14 15 15 16 16 18 18 19 21 22 23 24 25 26 28 29 30 31 32 33 34 34 35 35 35 35 35 35 35 35 35 35 35 35 35 35 34 34 33 32 31 30 29
17 18 19 19 19 21 22 22 23 25 26 27 28 29 30 31 32 34 35 36 37 37 38 39 39 40 40 40 40 39 39 39 39 39 38 38 37 37 37 36 35 34 33 32
21 22 22 23 24 24 26 27 27 28 30 31 32 33 35 36 36 38 39 39 40 41 42 42 43 44 44 44 44 44 44 43 43 42 41 41 40 40 40 39 38 37 36 35
25 25 26 26 27 28 29 30 31 32 33 34 36 37 38 39 40 42 43 44 44 45 45 46 47 48 48 48 49 48 48 47 46 45 45 44 43 43 42 42 41 40 39 37
27 28 29 29 30 31 32 33 34 35 36 38 39 40 41 43 44 46 47 48 48 49 50 51 51 52 52 51 51 51 51 50 49 48 48 47 46 46 46 45 44 43 41 40
30 31 32 32 33 34 36 37 38 40 41 42 43 45 46 48 49 51 52 52 53 54 55 55 56 56 56 56 55 55 54 53 52 52 51 51 50 49 49 48 47 45 44 43
33 34 35 35 37 38 40 41 42 43 45 47 48 50 51 53 54 55 56 57 57 58 58 59 60 60 60 60 59 58 57 56 55 54 53 53 53 52 51 50 50 48 47 46
37 38 38 39 41 42 43 45 46 47 49 50 52 54 55 57 58 58 59 60 60 61 61 62 62 62 62 62 62 61 59 58 55 54 53 53 54 53 53 52 52 51 50 48
41 41 42 43 44 46 47 48 50 51 53 54 55 57 58 60 60 61 62 62 62 63 63 64 64 63 62 62 61 60 58 57 55 54 53 52 53 54 54 54 54 53 52 51
44 45 46 47 48 49 51 52 54 55 56 57 59 60 62 63 63 63 64 64 65 65 65 65 64 63 63 61 59 57 56 55 54 53 53 52 52 53 55 54 54 54 54 53
47 48 49 50 52 53 55 56 57 58 59 61 62 63 64 64 64 65 65 66 66 66 66 65 64 63 62 60 58 56 54 53 52 51 51 51 51 52 53 54 54 55 55 54
49 50 52 53 55 56 58 59 60 61 62 63 64 65 65 65 65 65 65 65 65 65 64 64 63 62 60 57 55 53 52 51 50 49 49 50 50 51 52 53 54 54 55 56
51 53 54 56 57 58 59 61 62 62 64 65 65 66 66 65 65 64 64 63 63 62 62 62 61 59 57 55 53 51 50 50 49 48 49 49 49 49 50 51 52 53 54 56
54 56 57 58 59 60 61 62 63 64 64 65 65 65 65 64 64 63 63 62 62 61 61 61 60 57 54 53 51 50 48 47 47 47 47 47 48 48 48 49 50 51 54 55
56 57 58 59 60 61 62 63 64 64 64 65 65 64 63 63 63 63 62 61 61 62 60 59 57 54 53 51 50 48 47 46 46 46 45 45 45 46 46 46 48 50 52 54
58 59 60 60 61 61 62 63 63 63 63 63 63 63 63 62 62 62 62 61 60 60 58 56 54 52 51 49 47 45 45 44 44 43 43 43 43 43 44 44 46 48 49 51
60 60 60 60 61 61 61 62 62 62 62 62 62 62 62 61 61 61 60 60 58 56 55 53 51 50 48 46 45 44 43 43 42 41 41 41 41 41 42 43 44 46 48 49
60 60 60 60 60 60 60 61 61 62 62 62 61 61 61 61 60 59 58 56 55 54 52 50 48 47 46 45 43 42 42 40 39 39 40 40 39 39 40 41 42 44 45 47
60 60 60 60 60 60 60 60 61 61 61 61 61 60 60 59 57 57 56 54 52 51 49 47 46 45 44 43 42 40 39 37 37 37 38 38 37 37 37 38 39 41 43 46
60 60 60 59 60 60 60 60 60 60 60 59 58 57 56 55 54 53 52 51 49 48 47 45 44 43 42 41 39 38 37 35 35 35 35 34 34 33 34 34 35 37 40 43
60 59 59 59 59 59 59 59 58 57 56 55 54 53 52 51 51 50 49 47 46 46 45 43 42 41 40 38 36 35 35 34 33 33 32 31 31 31 32 32 33 34 37 40
57 57 57 57 57 56 56 56 55 54 53 52 50 49 49 48 48 47 46 45 44 43 42 40 40 39 38 36 34 34 33 32 31 30 29 28 28 29 30 30 31 32 34 37

GEFSNGP_500_meanwind_114.txt.gz
Wind_Speed
10 9 9 8 8 7 7 7 7 7 7 7 7 8 8 9 10 10 11 12 13 14 15 16 16 17 18 19 20 20 21 22 23 24 24 24 24 24 25 25 25 25 25 24
9 9 8 8 8 7 7 7 7 7 8 8 9 9 10 11 12 13 14 15 16 16 17 18 19 20 21 22 23 23 24 24 25 26 27 27 27 27 27 27 27 27 27 27
9 9 8 8 8 8 8 8 8 8 9 10 10 11 12 12 13 14 16 17 18 19 19 20 21 22 23 24 26 26 27 28 29 29 30 30 31 30 30 30 30 30 30 30
11 11 10 9 10 10 10 10 10 10 10 11 12 12 13 14 16 17 18 19 20 21 22 23 24 25 26 27 28 29 30 31 32 33 34 34 34 34 34 33 33 33 33 32
12 12 11 11 11 11 12 11 12 12 13 13 14 15 16 17 18 19 21 22 23 24 25 26 27 29 30 31 32 32 33 34 35 36 37 37 37 38 37 37 36 36 36 35
14 14 14 13 14 14 14 14 14 15 16 17 17 18 19 20 21 22 24 25 26 27 28 30 31 32 33 34 35 36 37 38 39 40 40 40 41 41 40 40 40 39 39 38
17 17 17 16 16 17 17 17 17 18 19 20 20 21 22 23 24 25 27 28 29 30 31 33 34 35 36 37 38 39 40 41 42 43 43 44 44 44 44 44 43 43 43 42
20 20 19 19 19 20 20 20 20 21 21 22 23 24 25 26 27 28 29 30 31 33 34 36 37 39 40 41 41 42 44 45 46 46 47 47 47 47 47 47 47 47 46 46
22 22 22 22 22 22 22 23 23 24 24 25 26 27 28 29 30 31 32 33 35 36 38 39 41 42 43 44 45 46 47 48 49 50 51 51 51 51 51 51 50 49 48 47
25 25 25 25 25 25 25 26 26 27 27 28 29 30 31 32 33 34 35 37 38 40 42 43 44 46 47 48 49 51 51 52 53 54 55 55 54 54 53 52 52 51 50 49
28 28 28 28 28 28 28 29 29 30 30 31 32 33 34 35 36 38 39 41 42 44 45 46 48 49 51 52 54 55 56 56 57 58 58 57 56 55 55 54 53 52 51 50
31 31 31 30 30 31 31 32 32 32 33 34 35 36 37 38 40 41 43 44 46 47 49 50 52 53 55 56 57 58 59 59 60 61 60 59 58 56 55 54 53 53 53 52
34 34 34 33 34 34 34 34 34 35 36 37 38 39 40 41 43 44 46 48 49 51 53 54 56 58 59 60 60 61 62 62 63 62 61 60 58 57 56 54 54 53 52 51
37 37 36 36 36 36 36 37 37 38 39 40 41 42 44 45 47 48 50 52 53 55 57 59 60 61 62 62 62 63 64 64 64 63 61 60 58 57 56 55 53 52 51 50
40 39 38 38 38 38 38 39 40 41 42 43 44 46 47 49 50 52 53 55 57 58 60 62 63 63 63 64 64 64 64 63 63 63 61 60 58 57 55 54 53 51 50 49
40 39 40 39 39 40 40 41 42 43 44 46 47 48 50 52 53 55 56 58 59 61 63 64 64 64 64 64 64 63 63 62 62 61 60 58 57 55 53 52 50 49 48 47
40 40 41 41 41 41 42 43 44 45 46 48 49 51 52 54 56 57 58 60 61 63 64 65 65 65 64 64 64 63 63 62 61 59 57 55 54 52 50 49 47 47 47 46
40 41 41 42 43 43 44 45 46 47 48 50 52 53 55 56 58 59 60 61 63 64 64 65 65 65 64 64 63 63 62 61 59 57 55 53 51 49 48 47 46 46 46 45
42 42 43 44 44 45 46 47 48 49 51 52 54 55 57 58 59 60 61 63 64 64 64 65 65 64 64 63 62 62 61 59 57 55 53 51 49 47 46 45 45 44 44 44
44 44 45 45 46 47 48 49 50 51 53 54 56 57 58 59 60 61 62 63 64 65 65 64 64 63 62 61 60 60 59 57 54 52 50 48 46 44 44 43 43 42 42 41
46 47 47 47 48 49 50 51 52 54 55 56 57 58 59 60 61 62 63 64 63 64 64 63 63 62 61 59 58 57 55 53 51 49 48 46 44 43 42 42 42 41 40 39
48 48 49 49 50 51 52 53 54 56 57 57 58 59 60 61 62 63 63 63 63 63 62 62 61 60 59 57 56 54 52 50 48 47 46 44 42 41 41 41 41 40 39 38
50 50 51 52 53 54 54 55 57 57 58 58 59 59 60 61 62 62 62 62 62 61 61 60 59 58 57 55 54 53 50 48 46 45 43 42 41 40 40 39 39 38 37 36
53 54 55 55 56 56 56 57 58 58 58 58 59 60 60 61 61 61 61 61 60 60 59 58 56 55 54 53 52 50 48 46 45 43 42 41 40 39 39 38 37 36 34 33
56 56 56 56 57 57 57 57 57 57 57 58 58 59 60 60 60 60 60 60 59 59 58 55 54 53 52 51 50 48 46 44 43 42 41 40 39 38 38 36 34 33 31 30
57 57 57 57 57 57 57 57 56 57 57 57 57 58 58 59 59 59 59 58 58 56 55 53 52 51 50 48 47 45 43 42 41 39 38 38 36 35 34 33 32 30 28 27
57 57 57 57 56 56 56 56 56 56 56 56 56 56 57 57 57 57 56 55 54 52 50 49 49 48 46 45 43 42 41 40 39 37 36 35 33 32 32 31 29 27 25 24

GEFSNGP_500_meanwind_120.txt.gz
Wind_Speed
10 11 11 11 12 13 13 12 14 15 14 11 11 10 9 9 9 9 9 9 10 10 11 12 12 13 14 15 16 17 18 19 21 22 22 22 22 23 24 24 25 26 26 27
11 11 12 12 13 14 14 15 15 15 12 11 10 10 10 10 10 10 11 11 12 12 13 13 14 15 16 17 18 19 20 21 23 24 24 24 25 25 26 27 27 28 28 29
11 11 11 11 12 13 14 15 15 14 13 11 11 11 11 11 12 12 12 13 13 14 15 16 16 17 18 19 20 21 23 24 25 26 26 27 27 28 28 29 30 30 31 31
13 13 12 11 12 14 14 14 15 14 14 13 13 13 13 13 13 14 15 15 16 17 17 18 19 20 21 22 23 24 26 27 28 28 28 29 30 30 31 32 32 33 34 34
14 14 14 13 14 15 15 15 15 15 15 15 16 15 15 15 16 17 17 18 19 20 20 21 21 23 24 25 26 27 28 29 30 30 31 32 33 33 34 35 36 37 37 38
16 16 17 15 14 16 17 16 16 17 17 17 18 18 17 17 19 19 20 21 21 22 23 23 24 26 27 28 29 30 31 32 33 33 34 35 36 37 38 39 39 40 41 41
18 19 19 17 16 18 19 17 17 18 18 19 20 20 20 20 21 22 22 23 24 25 26 27 28 29 30 31 32 33 34 35 36 37 38 39 40 41 42 43 44 44 45 45
21 22 22 19 19 21 20 19 20 20 21 21 22 22 22 23 24 25 25 26 27 28 29 30 31 32 33 34 35 36 37 38 39 40 41 43 44 45 47 47 48 49 49 50
24 24 23 22 23 23 23 23 23 23 23 24 24 25 25 26 27 28 28 29 30 31 31 32 33 35 36 37 38 40 41 42 43 44 45 47 48 50 51 52 52 53 54 54
27 26 26 25 25 26 26 26 26 26 27 27 27 28 29 29 30 31 31 32 32 33 34 35 37 38 39 41 42 43 44 45 46 48 49 51 53 54 55 55 56 56 57 56
31 30 30 29 29 29 29 29 29 30 30 30 31 31 32 33 33 34 34 35 36 36 37 39 40 41 42 44 45 46 47 49 50 52 54 55 56 56 57 58 58 59 58 58
34 33 33 33 32 32 32 32 32 33 33 33 34 35 35 36 37 37 38 38 39 40 41 42 43 44 46 47 48 49 51 52 54 56 57 58 58 59 59 60 60 60 60 59
37 37 36 36 35 35 35 35 35 36 36 37 37 38 38 39 39 40 40 41 42 42 43 44 45 47 48 50 51 52 54 56 58 59 60 61 61 61 61 61 61 61 60 59
39 39 39 38 38 38 38 39 39 39 40 40 41 41 41 41 41 42 42 43 44 45 46 47 48 50 51 53 54 56 58 60 61 62 63 63 64 64 64 64 63 62 60 58
41 41 41 40 40 40 40 40 41 41 42 43 43 43 43 43 43 44 45 45 46 47 48 50 52 53 55 56 58 59 60 62 63 64 65 65 66 66 66 65 64 62 59 56
43 43 42 42 42 42 42 42 43 43 44 44 44 44 45 45 45 46 47 48 49 50 51 53 55 56 57 59 60 61 62 64 65 66 66 66 66 66 65 65 63 61 58 55
44 43 43 43 43 44 44 44 44 44 44 45 45 46 46 47 47 48 49 50 52 53 54 56 57 58 60 61 62 63 64 65 66 67 67 67 67 66 65 64 62 60 57 54
45 45 45 45 45 45 45 45 45 45 45 46 46 47 48 48 49 50 51 53 54 55 56 58 59 60 61 63 64 65 66 67 68 68 68 67 66 65 65 63 62 59 56 52
45 45 45 45 45 45 45 45 45 46 46 47 48 48 49 50 51 52 54 55 56 57 58 60 61 62 63 64 66 67 68 68 69 68 67 67 66 66 64 62 60 58 54 50
45 45 45 45 46 46 46 46 47 47 48 49 50 50 51 52 53 54 56 57 58 59 60 61 62 63 65 66 67 68 69 69 69 68 67 66 65 64 62 60 57 54 51 48
45 45 46 46 46 47 47 48 49 50 50 51 51 52 53 54 55 56 58 58 59 61 62 63 64 65 66 67 68 68 69 68 68 67 66 65 64 62 60 57 54 52 50 47
46 46 47 48 48 48 49 49 50 51 51 52 53 54 55 56 57 58 59 60 62 63 64 64 65 66 67 67 68 68 68 67 67 66 65 63 61 59 57 54 51 49 47 44
47 48 48 48 49 49 50 51 51 52 53 54 55 56 57 58 59 60 61 62 63 64 65 65 66 66 66 67 67 67 66 65 64 64 62 60 58 56 53 51 49 47 44 41
49 49 50 50 51 52 52 53 54 54 55 56 57 58 59 60 61 62 63 63 63 64 64 64 65 65 65 65 65 65 64 63 62 61 59 57 54 52 50 47 45 43 41 39
52 52 52 53 53 54 54 55 55 56 57 58 58 60 61 61 62 62 62 62 63 63 63 63 63 63 64 64 64 63 63 61 60 58 56 54 51 49 47 45 43 41 40 38
53 54 54 55 55 56 56 57 57 58 59 60 60 60 61 61 61 61 61 62 62 63 63 62 62 62 62 62 62 61 60 58 57 55 53 50 48 46 44 43 42 41 39 38
54 55 55 56 56 57 58 59 59 60 60 60 61 60 60 60 61 61 61 62 62 62 61 61 61 61 61 60 59 58 57 55 53 51 50 48 46 44 43 42 41 39 38 37

GEFSNGP_500_meanwind_126.txt.gz
Wind_Speed
14 14 15 15 15 16 15 14 13 12 11 9 9 9 8 8 7 7 7 7 8 8 8 8 9 9 10 10 11 11 12 13 14 15 16 17 18 19 20 20 21 21 21 21
15 15 15 16 16 16 16 14 13 12 11 10 10 10 10 10 9 9 9 9 9 9 9 10 10 11 11 12 13 14 14 15 16 17 18 19 20 21 22 23 23 23 23 23
15 15 15 15 15 16 16 15 14 13 11 12 12 11 11 11 11 11 11 11 11 11 11 12 12 13 13 14 15 16 17 18 19 20 21 22 23 24 25 25 26 26 26 27
16 16 15 13 15 15 15 15 14 13 13 12 12 13 13 12 13 13 12 12 12 13 13 14 14 15 16 17 18 19 20 20 21 22 23 24 25 27 27 28 29 29 30 30
17 17 14 14 14 15 15 14 14 13 14 14 14 14 13 14 14 14 14 14 14 14 15 16 16 17 18 19 20 21 22 23 24 25 26 27 28 29 31 32 32 32 33 33
18 18 16 14 15 15 15 14 14 14 14 15 15 15 14 15 15 16 16 16 16 16 17 18 19 20 21 22 23 24 25 26 27 28 29 30 31 33 34 35 35 36 37 37
19 19 17 16 16 16 16 13 15 15 15 16 16 16 16 16 17 18 17 18 18 19 20 21 22 23 24 25 26 27 28 29 30 31 32 33 35 36 37 38 39 40 41 42
21 20 17 18 18 18 17 17 17 17 17 17 17 18 18 18 19 19 19 20 21 22 23 25 26 26 27 28 29 30 31 32 33 34 35 36 38 39 41 42 42 43 44 46
23 21 20 20 20 20 19 19 19 19 20 20 19 19 20 21 21 22 23 23 24 25 27 28 28 29 30 31 32 33 34 35 36 37 38 40 41 43 44 45 46 47 48 49
25 23 23 23 22 22 22 21 21 21 22 22 22 22 23 24 24 25 26 26 27 28 29 30 31 32 33 34 35 36 37 38 39 40 42 43 45 46 47 49 50 51 52 53
27 26 26 25 25 24 24 24 24 24 25 25 25 26 26 27 27 28 29 29 30 31 32 33 34 35 37 37 38 39 40 41 42 43 45 46 47 49 50 52 54 55 56 57
30 29 30 29 29 28 27 27 26 27 27 28 28 28 28 29 30 31 32 33 33 34 35 36 37 38 39 40 41 41 42 43 45 46 47 48 50 52 53 55 57 58 59 60
34 34 34 33 32 31 31 30 30 30 30 31 31 31 32 32 33 34 35 36 37 38 38 39 40 40 41 43 43 44 45 46 47 48 49 51 53 54 56 57 59 60 61 63
36 36 35 35 35 35 35 34 33 33 33 34 34 35 35 36 37 37 38 39 40 41 42 42 42 43 44 44 45 46 47 48 49 51 52 54 56 57 58 59 61 62 63 64
38 38 38 38 38 38 37 37 36 36 37 37 38 38 38 39 39 40 41 41 42 43 44 44 44 45 45 46 46 48 49 51 52 54 55 56 58 59 61 63 64 65 65 65
39 39 39 39 39 39 39 39 39 39 39 39 39 39 40 40 41 41 42 42 43 43 44 45 45 46 47 48 49 50 51 53 55 56 57 59 60 62 64 65 66 66 66 66
40 40 40 40 40 41 40 40 40 40 40 40 40 41 41 41 42 42 43 44 44 44 45 45 46 48 49 50 51 52 54 55 57 58 60 61 63 65 66 67 67 67 66 66
41 41 42 42 42 42 42 42 42 42 42 42 42 42 42 43 43 44 45 45 45 46 46 47 49 50 51 52 53 55 56 58 59 61 62 63 65 66 67 68 68 68 67 67
42 42 42 42 42 43 43 42 42 42 42 43 43 43 44 44 45 45 46 47 47 48 49 50 51 52 53 54 56 57 59 60 62 63 64 66 67 67 68 69 69 69 68 67
43 43 43 43 43 43 43 43 43 43 44 44 45 45 46 46 47 48 48 48 49 50 51 52 53 54 55 57 58 59 61 62 64 65 66 67 68 68 69 69 69 68 67 67
43 44 44 44 44 44 44 44 44 44 45 46 46 47 48 48 49 49 49 50 51 52 53 54 55 56 57 59 60 61 62 64 66 67 68 68 68 69 69 68 68 67 66 65
42 43 44 45 45 45 45 45 46 46 46 47 47 48 48 49 49 50 50 51 53 54 55 56 57 58 59 60 61 63 64 66 67 67 68 68 68 68 67 66 66 65 65 63
43 43 44 45 45 46 46 47 47 47 48 48 48 49 49 50 51 52 53 54 55 56 57 58 59 60 61 62 63 64 65 66 66 67 67 66 66 66 65 65 64 64 62 61
44 44 45 46 46 47 47 48 48 49 49 50 50 51 52 52 53 54 55 56 57 57 58 59 60 61 62 63 64 65 65 65 65 65 65 64 64 64 64 63 62 61 60 58
46 46 46 46 47 47 48 48 49 50 51 51 52 53 54 54 55 56 57 57 58 59 60 60 61 62 63 64 64 65 65 65 64 64 63 63 63 62 62 61 60 59 57 55
48 48 48 48 48 49 49 50 50 51 51 52 53 54 55 56 57 58 58 59 60 60 60 61 61 62 63 63 64 64 63 63 63 62 62 62 61 60 59 59 57 56 54 52
49 49 49 49 50 50 51 51 52 52 53 54 55 56 57 58 58 59 59 59 59 59 59 60 61 62 62 62 62 62 61 61 61 61 60 59 58 57 56 55 54 52 50 48

GEFSNGP_500_meanwind_132.txt.gz
Wind_Speed
15 15 15 16 17 17 16 15 14 13 13 13 14 14 14 14 14 13 12 12 12 11 11 11 10 9 9 9 9 10 10 11 12 13 14 15 16 17 18 19 19 19 20 20
15 16 16 16 16 16 16 16 15 15 14 15 15 15 15 15 15 14 14 13 13 13 12 12 12 11 11 11 11 12 12 13 14 15 16 17 18 19 20 20 21 21 21 22
16 17 17 16 15 15 15 15 16 16 15 17 17 16 16 17 16 15 15 15 15 14 14 13 13 13 13 13 13 14 15 16 16 17 18 19 20 21 22 22 23 23 24 24
16 17 17 14 16 16 15 15 16 16 17 17 17 18 18 18 17 17 17 17 16 15 15 15 15 15 15 15 16 16 17 18 18 20 21 21 22 23 23 24 25 25 26 27
18 18 16 15 16 16 16 15 16 16 17 18 18 18 18 19 18 18 18 18 17 17 17 16 16 17 17 17 18 19 20 20 21 22 23 24 24 25 26 27 27 28 29 31
19 19 17 15 17 18 18 15 15 17 18 19 19 18 18 19 19 19 19 19 18 18 18 18 18 18 19 20 20 21 22 23 24 25 25 26 26 28 29 30 31 32 32 34
20 20 17 17 19 19 18 15 17 18 19 19 19 18 19 20 20 20 19 19 19 19 19 19 20 20 21 22 23 24 25 25 26 26 27 28 29 30 31 32 33 35 35 36
22 21 17 18 20 20 19 19 19 20 20 20 20 20 20 21 21 21 20 20 20 20 21 21 22 23 24 25 25 26 27 27 28 29 30 31 32 33 33 34 36 37 38 39
24 22 21 21 21 22 21 22 22 22 22 22 22 22 22 22 22 22 22 22 22 22 23 24 25 25 26 27 27 28 29 30 31 32 33 33 34 35 36 37 38 39 40 41
26 24 24 24 24 24 24 24 24 24 24 24 23 23 24 24 24 24 24 24 25 25 26 26 27 28 29 29 30 31 32 33 34 34 35 36 37 38 39 40 41 42 43 44
28 27 27 27 27 27 27 27 26 27 26 25 25 25 25 26 26 26 27 27 27 28 28 29 30 30 31 32 33 33 34 35 36 37 38 39 40 41 41 42 43 44 45 46
30 30 30 29 29 30 30 29 29 29 28 28 28 28 28 28 28 28 29 29 30 30 31 31 32 33 34 35 35 36 37 38 38 39 40 41 42 43 43 44 45 47 48 49
33 32 32 32 32 32 32 32 31 31 31 31 31 31 31 31 31 31 31 31 32 32 33 34 34 35 37 38 38 39 39 40 41 42 43 44 44 45 45 46 48 49 51 52
35 35 34 34 34 34 35 35 34 33 33 33 33 33 33 33 33 33 34 34 35 35 35 36 37 38 39 40 41 41 42 43 44 45 46 46 47 47 48 49 50 51 52 54
37 37 36 36 36 36 36 36 36 35 35 35 36 36 36 36 36 37 37 37 38 38 38 39 40 41 42 43 43 44 45 46 47 47 47 48 49 49 50 51 52 53 54 56
38 39 39 38 38 38 38 38 37 37 37 38 38 38 39 39 40 40 40 40 41 41 42 42 43 43 44 45 46 47 47 48 48 48 49 50 51 52 52 53 54 55 57 58
40 40 40 40 39 39 39 39 39 39 39 40 40 41 42 42 42 42 42 43 43 44 44 45 45 46 47 47 47 48 48 49 49 50 51 52 52 53 54 55 56 58 59 61
40 41 41 42 41 41 41 40 40 40 40 40 41 42 42 43 43 44 44 45 45 46 46 46 47 48 48 48 49 50 50 51 52 53 53 53 54 55 56 58 59 61 62 63
40 41 41 42 42 42 42 42 42 42 42 42 43 44 44 44 45 45 46 46 47 47 47 48 49 49 50 51 52 53 53 54 55 55 55 55 56 58 59 61 62 63 65 66
41 42 42 42 42 43 43 43 43 44 44 44 44 44 44 45 45 46 46 47 47 47 48 49 50 51 52 53 54 55 55 55 55 56 56 57 59 60 61 63 64 66 66 67
43 43 43 43 43 43 44 44 44 44 44 44 45 45 46 46 47 47 48 48 49 50 51 51 52 52 53 54 55 55 56 56 57 58 59 60 61 62 63 65 66 67 67 68
43 44 44 44 44 44 44 44 45 45 45 45 46 46 47 48 48 49 50 50 51 52 52 52 53 54 55 55 56 56 57 58 58 59 60 61 62 64 65 66 67 67 68 68
44 44 45 45 44 44 45 45 46 46 46 47 48 48 49 49 50 51 51 51 52 53 53 54 54 55 56 56 57 57 58 59 60 61 62 63 64 65 66 67 67 67 68 68
45 45 46 46 46 46 46 46 47 47 48 48 49 50 50 51 51 52 52 52 53 54 54 55 56 57 57 58 58 59 59 60 61 62 63 64 65 66 66 67 67 66 67 67
46 46 47 48 48 48 48 48 48 49 49 50 50 51 51 52 52 53 53 54 55 55 56 57 58 59 59 59 59 60 60 61 62 63 64 64 65 65 66 66 66 65 65 64
47 47 48 49 49 49 49 50 50 50 51 51 52 52 52 53 53 54 54 55 56 57 58 58 59 59 59 59 60 60 61 62 62 63 63 64 64 64 64 64 64 63 63 62
47 48 49 50 50 51 51 51 51 51 52 52 52 53 53 54 55 55 56 56 57 58 58 58 59 59 59 59 60 60 61 61 61 61 62 62 63 63 63 62 62 61 61 60

GEFSNGP_500_meanwind_138.txt.gz
Wind_Speed
13 14 15 16 16 17 17 16 15 14 15 16 16 17 16 17 17 16 16 16 15 15 15 15 15 14 13 13 12 12 11 11 11 10 10 10 11 11 12 13 13 14 14 14
12 13 14 15 16 17 17 16 16 16 16 17 17 17 17 17 18 17 17 16 16 16 16 16 16 15 15 14 14 14 13 13 13 12 12 12 13 13 14 15 15 16 16 17
11 12 13 14 14 15 16 15 16 16 17 18 18 18 17 18 18 17 17 17 17 17 17 16 16 16 16 16 16 15 15 15 14 14 14 15 15 16 16 17 18 18 19 20
12 13 13 13 14 15 15 15 16 16 17 19 18 18 18 19 18 18 18 18 18 17 17 17 17 17 17 17 17 17 17 16 16 16 16 17 18 18 19 19 20 21 21 23
14 14 13 13 13 15 15 15 16 17 18 19 19 19 19 19 19 19 19 19 19 18 18 18 18 18 18 18 18 18 19 18 18 19 19 20 20 20 21 22 22 23 24 25
16 15 14 14 15 15 15 15 17 18 19 19 19 19 19 20 20 20 19 19 20 20 20 20 20 19 19 20 20 20 20 20 20 21 21 22 23 23 24 24 25 26 26 27
17 17 15 15 16 17 16 16 18 19 19 19 19 19 20 21 21 20 20 20 20 20 20 21 20 20 20 21 21 21 21 22 23 23 23 24 25 26 26 27 27 28 29 30
19 19 17 17 17 18 17 18 18 18 18 19 19 20 20 20 20 20 20 21 21 21 22 22 22 22 22 22 22 23 23 23 24 25 26 26 27 28 29 29 30 30 31 32
21 20 20 20 20 19 19 19 19 20 20 20 20 20 21 21 21 21 22 22 22 23 23 23 23 23 23 24 24 24 25 26 26 27 28 29 29 30 30 31 32 33 34 35
23 22 21 22 22 22 21 21 21 21 21 21 22 22 22 23 23 23 23 23 23 23 24 24 25 25 26 26 26 26 27 28 28 29 30 31 31 32 33 34 34 35 36 37
25 24 24 24 24 24 24 23 24 24 23 23 23 24 24 24 25 25 25 25 25 26 26 27 27 28 28 28 28 28 29 30 31 32 32 33 34 35 35 36 37 38 39 40
27 27 28 27 26 26 26 26 26 26 25 25 25 26 26 26 27 27 27 27 27 27 28 29 29 29 29 29 30 31 31 32 33 34 35 36 37 38 38 40 40 41 42 43
29 29 29 29 28 28 28 28 28 27 28 27 27 28 28 29 29 29 29 29 29 29 30 30 30 30 30 31 32 33 34 35 35 36 37 38 40 40 41 42 43 44 45 45
31 31 31 31 31 31 31 30 30 30 30 30 30 30 30 30 30 30 31 31 31 31 31 32 32 32 33 34 35 36 37 38 38 39 40 41 42 43 44 45 45 46 47 47
33 33 33 32 32 32 32 32 32 31 31 31 31 31 32 32 32 32 33 33 33 33 34 34 34 35 37 37 38 39 40 40 41 42 43 44 45 45 46 47 48 48 49 49
35 35 35 34 33 33 33 33 33 32 32 32 33 33 33 33 33 33 33 34 34 35 36 36 37 38 39 40 41 42 42 43 44 44 45 46 47 48 48 49 50 50 51 51
37 36 36 36 35 34 34 34 34 34 34 34 34 35 34 35 35 35 35 36 37 38 39 39 40 41 42 43 44 45 45 46 46 46 47 48 49 49 50 51 51 51 52 53
37 37 37 36 36 36 36 36 36 36 36 36 36 37 37 37 37 38 38 39 40 40 41 42 43 44 45 45 46 47 47 48 48 48 49 50 51 51 52 52 53 53 53 54
38 38 37 37 37 38 38 38 38 37 37 37 37 37 38 38 39 40 41 42 42 43 43 44 45 46 47 47 48 48 49 49 49 50 51 52 52 53 53 54 54 54 54 55
40 39 39 39 39 39 39 39 39 39 39 38 39 39 39 40 40 41 42 43 44 44 45 46 47 48 48 48 49 49 50 50 50 51 52 52 53 53 54 54 54 55 55 56
41 41 41 41 41 41 40 40 40 40 40 40 40 40 41 41 42 43 43 44 44 45 46 47 47 48 48 49 50 50 51 51 52 53 53 54 54 54 54 55 55 56 56 57
42 42 42 43 43 43 42 42 42 42 42 42 42 43 43 43 44 44 45 45 45 46 47 48 49 49 49 50 50 51 52 53 54 54 55 55 55 55 55 56 57 57 58 59
43 43 44 44 44 45 45 45 44 44 44 44 44 44 45 45 45 45 46 46 47 47 48 49 49 50 50 51 52 53 54 54 55 56 56 56 56 57 57 57 58 59 59 60
44 45 45 45 46 46 46 46 46 46 46 46 46 46 46 46 47 47 48 48 49 49 50 50 51 51 52 53 53 54 55 55 56 56 57 57 57 58 58 58 58 59 59 60
44 45 46 46 47 47 47 48 48 48 48 48 48 48 49 49 49 49 50 50 50 51 51 52 52 53 53 53 54 55 55 56 56 56 57 57 57 58 58 58 59 59 60 59
45 45 46 46 47 47 47 48 49 49 49 50 50 50 51 51 51 52 52 51 51 52 52 52 53 53 54 54 54 55 56 56 56 56 56 57 57 58 58 58 58 58 58 58
45 45 46 47 47 47 47 48 48 49 49 50 51 51 52 52 52 52 52 52 52 52 52 53 53 54 54 55 55 55 55 55 56 56 56 56 56 56 56 56 56 56 56 56

GEFSNGP_500_meanwind_144.txt.gz
Wind_Speed
10 9 10 12 14 15 15 16 15 14 14 14 14 15 16 15 16 16 15 15 15 15 16 15 15 15 14 14 13 13 13 12 12 12 12 11 11 11 11 11 12 12 13 13
9 10 10 11 13 14 15 16 17 16 15 14 14 15 16 16 16 17 16 16 16 16 16 16 16 16 15 15 14 14 14 14 14 14 14 13 13 13 13 13 14 14 15 15
8 9 10 11 11 13 15 16 16 17 16 16 16 16 16 17 17 17 18 17 17 17 17 17 17 17 16 16 16 16 15 16 15 15 15 15 15 15 15 15 16 16 16 17
9 10 11 10 11 12 13 15 16 16 17 18 18 17 17 17 16 17 18 18 18 18 18 18 18 18 18 17 17 17 17 17 17 17 17 16 17 17 17 17 17 18 18 19
11 11 10 10 11 11 12 14 15 16 17 18 18 18 18 18 18 18 18 19 19 19 19 19 19 19 19 19 19 19 19 19 19 19 19 19 19 19 19 19 19 20 20 21
12 12 11 11 11 12 12 14 15 16 17 17 18 18 18 18 18 18 19 20 19 19 19 19 19 19 19 20 20 20 20 21 21 21 21 21 21 21 21 21 21 22 23 23
14 14 13 13 13 13 15 16 16 16 17 18 18 18 18 18 19 19 20 20 20 20 20 20 21 21 21 21 21 22 23 23 23 23 23 23 23 23 23 23 24 24 25 25
16 16 16 16 15 15 16 16 17 17 18 18 18 19 19 19 20 20 21 21 21 21 22 22 23 23 22 22 23 23 24 24 24 24 24 24 24 25 25 25 26 26 27 28
18 19 19 19 18 17 18 18 18 18 19 20 20 20 20 20 20 21 21 21 22 22 23 24 23 23 23 24 24 24 25 25 25 25 25 25 26 26 27 27 28 29 29 30
22 22 23 22 21 21 21 21 21 20 20 21 21 21 21 21 21 22 22 22 23 23 23 23 23 23 24 25 26 26 26 26 26 26 27 27 28 29 29 30 30 31 31 32
23 23 24 24 24 23 22 23 23 23 22 22 22 22 22 22 23 23 23 23 23 23 23 23 24 25 26 26 27 27 27 28 28 28 29 29 30 31 31 32 33 34 34 35
27 26 27 26 24 24 23 24 24 24 24 24 23 23 24 24 24 24 25 25 24 24 25 25 26 26 27 27 28 29 29 29 30 31 31 31 32 32 33 35 35 36 37 38
29 28 29 28 26 25 24 24 25 25 25 25 25 25 25 26 25 25 25 25 26 26 27 27 27 28 28 29 30 30 31 31 32 32 33 33 34 35 36 37 38 39 40 41
31 31 31 30 29 28 27 27 26 26 26 26 27 27 27 27 27 27 27 27 28 28 29 29 29 29 30 31 31 32 32 33 33 34 35 36 37 38 39 39 40 41 42 43
33 33 33 33 32 32 30 29 29 28 28 28 28 28 28 29 29 28 28 29 30 30 30 31 30 30 31 32 33 34 34 35 35 36 38 39 39 40 41 42 43 44 44 45
36 36 35 35 34 33 32 32 31 31 31 30 30 30 30 30 31 31 31 31 32 32 32 32 32 32 33 34 35 36 37 37 39 39 41 42 42 43 44 45 45 46 47 47
37 37 37 37 36 35 35 35 34 34 33 32 32 32 32 32 33 33 33 33 34 34 34 34 35 35 36 37 38 39 40 40 41 42 43 44 45 46 46 47 48 48 49 49
38 38 38 38 38 37 37 37 37 36 36 35 35 34 34 35 35 35 35 35 35 35 36 36 37 38 38 39 40 41 42 43 44 44 45 46 46 47 48 49 49 50 50 51
39 39 39 39 39 39 38 38 38 38 38 37 37 37 37 37 36 36 37 37 37 37 37 38 39 39 40 41 42 43 43 44 45 46 47 47 48 49 50 50 51 51 52 52
40 40 40 40 40 40 40 39 39 39 39 39 39 39 39 39 39 39 38 38 38 39 39 40 41 41 42 43 43 44 45 46 47 47 48 49 49 50 51 52 52 53 53 53
41 41 41 41 40 40 40 40 40 40 41 41 42 42 42 41 41 41 41 41 41 42 42 42 43 43 44 45 45 46 47 47 47 48 49 50 51 51 52 53 53 53 54 54
41 42 42 42 42 42 42 42 43 43 43 43 43 43 44 44 43 43 44 44 44 44 45 45 46 46 46 47 47 48 49 49 49 50 50 51 52 52 53 54 54 54 54 54
41 42 43 43 44 44 45 45 45 45 45 45 45 45 45 45 45 45 46 46 46 47 47 48 48 49 49 49 50 50 51 51 51 51 52 53 54 54 54 54 54 54 54 55
41 42 43 44 45 45 46 46 47 47 48 48 48 48 48 48 48 48 48 48 48 49 49 49 50 51 51 52 52 52 52 52 53 53 53 54 55 55 55 55 55 55 55 55
42 43 44 44 45 46 46 47 47 48 48 48 49 49 49 50 50 49 50 50 50 51 51 51 52 52 52 52 53 53 54 54 54 55 55 55 55 55 55 55 55 55 55 56
42 43 43 44 45 46 47 47 48 48 48 49 49 50 50 51 52 51 51 51 52 52 53 53 53 53 54 54 54 55 55 55 55 55 54 55 55 55 55 55 56 56 56 56
42 42 43 44 44 45 46 47 48 48 49 49 50 50 51 51 52 53 53 52 52 52 53 53 54 55 55 55 55 55 55 55 55 55 55 55 56 56 56 55 55 56 56 56

GEFSNGP_500_meanwind_150.txt.gz
Wind_Speed
8 9 10 10 10 11 12 12 12 11 12 12 12 12 12 12 12 12 13 13 13 13 14 14 14 14 13 13 13 13 12 12 12 11 10 10 10 9 9 9 9 9 9 9
10 10 10 10 10 11 12 14 13 12 12 13 14 13 12 12 12 12 13 13 13 13 14 14 15 15 15 15 15 14 14 13 13 13 12 12 12 12 12 11 11 11 12 12
11 11 11 11 11 11 12 12 12 12 12 13 13 12 12 12 12 12 13 13 15 15 15 16 16 16 16 16 16 15 15 15 15 15 14 14 14 14 14 14 13 13 14 14
11 11 12 10 11 12 12 12 12 12 12 12 12 12 12 12 12 13 13 14 15 16 17 17 17 17 17 17 16 16 17 17 16 16 16 16 16 16 16 16 16 16 16 16
12 12 11 11 11 12 12 11 11 12 12 12 12 13 13 13 13 13 13 14 15 16 17 18 18 18 19 18 18 18 18 18 18 18 18 18 18 18 18 18 18 17 17 17
13 13 12 11 12 13 13 12 11 12 12 13 13 13 13 13 14 14 14 15 16 16 16 17 18 19 19 19 19 20 20 20 20 20 20 20 20 20 20 19 19 19 19 20
14 14 13 13 13 13 13 12 13 13 14 14 14 13 13 13 14 15 15 16 16 16 16 17 18 20 20 20 20 21 21 21 21 21 21 21 21 21 21 21 21 22 22 22
16 16 14 14 14 14 13 13 13 14 15 15 15 14 14 15 15 16 16 16 16 17 17 18 19 19 20 20 21 22 21 22 22 22 22 23 23 23 23 23 23 23 24 24
18 16 15 14 13 13 13 14 14 14 15 15 16 16 17 16 17 17 17 18 18 19 19 20 20 21 21 22 22 22 22 23 23 24 24 24 24 25 25 25 25 26 26 27
19 17 16 15 15 15 14 15 14 14 15 16 17 18 19 18 18 18 19 20 21 22 21 21 22 22 23 23 23 24 24 25 25 26 26 26 27 27 27 27 27 28 29 29
20 19 17 16 16 16 16 16 16 16 17 17 18 18 19 20 20 20 20 21 21 21 22 22 23 23 24 24 25 26 26 26 27 27 28 29 29 29 29 29 30 30 31 32
22 20 19 19 19 18 19 19 19 18 18 18 19 19 20 20 21 22 22 22 22 23 23 24 25 25 25 25 26 27 27 28 28 29 30 30 30 30 31 31 32 33 34 34
24 23 22 22 22 21 21 21 21 21 20 21 21 21 21 22 22 23 23 24 24 25 26 26 26 26 27 27 27 28 28 29 29 30 30 30 31 31 32 33 34 34 35 36
28 28 27 26 25 25 24 24 24 23 23 23 23 23 23 23 23 23 25 26 26 26 27 27 27 28 28 29 29 29 30 30 30 30 31 31 32 33 34 34 35 36 37 39
32 31 31 30 29 28 27 26 26 25 25 25 25 25 25 25 25 25 26 27 27 28 28 29 29 29 30 30 31 31 31 31 32 32 33 34 35 35 36 37 38 39 40 42
34 34 33 33 32 31 30 29 29 28 27 27 26 27 28 28 28 28 28 28 28 29 29 29 30 30 31 31 31 32 32 33 34 34 35 36 37 38 39 40 41 42 43 44
35 35 35 34 33 33 33 32 31 31 30 29 29 29 29 30 30 29 30 30 30 30 30 31 31 32 32 32 33 34 35 35 35 36 37 38 39 41 42 43 44 45 45 47
37 37 37 36 35 35 35 35 34 34 34 33 32 31 31 31 31 31 32 32 32 32 32 33 33 33 33 34 35 35 36 37 38 39 40 41 42 43 45 45 46 47 48 49
37 37 37 37 36 36 36 36 36 36 35 35 34 34 34 34 34 33 34 34 34 34 34 35 35 35 36 36 37 38 39 39 40 41 42 43 44 45 46 47 48 49 50 51
36 36 37 37 37 37 37 37 37 36 36 37 37 37 36 36 36 36 36 36 36 36 36 37 38 38 39 39 39 40 41 42 42 43 44 45 46 47 48 49 49 50 51 51
36 36 36 37 37 37 38 38 38 38 38 38 38 38 38 38 38 38 38 38 38 39 39 39 40 40 41 42 42 43 44 45 46 46 47 47 48 49 49 50 50 50 50 51
36 36 36 37 38 38 38 39 39 40 40 40 40 40 40 40 40 40 40 41 41 41 42 42 43 43 44 44 45 45 46 47 48 49 49 50 50 50 50 50 51 51 51 51
36 36 37 37 38 39 39 39 40 40 40 40 41 42 42 42 42 43 43 43 44 44 44 44 45 45 46 47 48 48 49 49 50 51 51 52 52 53 52 52 52 52 52 53
37 37 37 38 38 39 39 39 40 40 41 41 42 43 44 45 45 45 46 46 46 46 46 46 47 47 48 48 49 49 50 51 52 53 53 53 53 53 53 53 53 53 54 55
36 37 38 38 39 39 39 39 40 41 41 42 43 44 45 46 46 46 47 47 47 47 48 48 49 49 50 50 50 51 51 52 53 53 54 54 54 54 54 54 54 54 55 55
36 37 37 38 38 39 39 39 40 41 42 43 43 44 45 46 47 48 49 49 49 50 50 50 51 51 52 52 53 53 53 54 54 54 54 54 54 54 54 55 55 55 56 56
36 37 37 37 38 38 39 40 41 42 42 43 44 45 45 46 47 48 49 49 50 50 51 52 52 52 53 53 54 54 54 54 54 55 54 54 54 54 55 56 56 56 57 57

GEFSNGP_500_meanwind_156.txt.gz
Wind_Speed
10 10 10 10 11 11 11 12 13 13 13 13 13 12 12 12 13 14 15 15 16 17 17 17 17 17 16 15 14 14 14 13 12 12 11 11 11 11 11 11 10 10 9 10
11 11 11 11 11 11 11 12 12 13 12 13 12 11 12 12 13 13 14 14 15 16 17 17 17 17 16 16 15 15 15 15 14 14 13 13 13 13 13 13 13 12 12 12
12 12 11 11 10 11 11 11 11 12 12 12 12 11 11 12 12 13 13 13 14 15 17 18 17 18 17 17 17 17 16 16 16 15 15 15 15 15 15 15 15 15 15 15
13 13 12 10 11 11 11 11 11 11 11 11 11 11 11 11 12 13 14 14 15 15 16 17 18 18 18 18 18 18 18 18 18 18 17 17 17 17 17 17 17 17 17 16
14 13 11 11 11 11 11 11 11 11 11 11 11 11 11 12 13 13 14 15 15 16 16 17 18 18 18 18 18 19 19 19 20 20 20 20 19 19 19 18 19 19 18 18
15 14 13 11 12 12 11 10 11 11 11 11 12 12 12 12 13 13 14 15 15 16 16 17 18 19 19 19 19 19 20 21 21 22 22 21 21 21 21 20 21 21 20 20
16 15 12 12 13 12 11 10 11 11 12 13 13 14 14 14 14 14 14 15 15 15 15 16 17 18 18 19 20 20 21 21 21 22 22 22 23 23 23 23 23 23 22 22
17 16 13 14 13 13 12 12 12 13 14 14 14 15 14 14 15 15 16 16 16 15 16 16 17 18 19 20 21 22 22 22 22 22 22 23 23 24 24 24 25 25 25 25
18 16 15 15 15 15 15 15 15 14 14 14 15 15 14 15 15 16 17 17 17 17 18 18 19 19 20 21 22 22 22 22 23 23 24 24 24 25 25 25 26 26 27 27
20 19 17 17 16 16 16 16 16 16 16 16 16 16 16 16 16 16 17 18 18 19 19 19 20 21 22 22 23 23 23 23 23 24 25 25 26 27 27 28 28 28 28 29
22 21 20 18 18 18 19 18 18 18 18 18 18 18 17 17 18 18 18 19 19 20 20 21 21 22 23 24 24 24 24 25 25 26 26 27 28 28 29 30 30 31 31 31
23 21 21 20 19 19 18 19 19 19 19 19 19 18 18 18 18 19 20 21 21 22 22 23 23 24 24 25 25 25 26 26 27 27 27 28 29 30 30 31 32 32 33 34
25 23 23 21 20 20 20 20 20 19 19 19 19 19 19 19 19 19 21 22 22 23 23 24 24 25 26 26 26 26 27 27 28 28 28 29 30 30 31 32 33 33 34 35
27 26 25 23 22 22 22 22 21 21 21 21 21 21 21 21 21 21 22 23 23 24 24 25 25 26 27 28 28 27 28 28 29 30 30 31 32 33 33 34 34 35 36 36
28 28 27 26 26 25 24 24 24 24 23 23 23 23 23 23 23 24 24 24 25 25 26 26 26 27 27 28 29 29 30 30 31 31 32 33 33 34 35 36 37 37 38 39
31 30 30 30 29 28 27 26 26 26 26 25 26 25 25 26 26 26 26 26 27 27 27 27 28 28 28 29 30 31 32 32 33 33 33 34 35 35 36 37 38 38 39 40
34 33 33 32 32 31 30 29 29 29 28 28 28 28 28 28 29 29 29 29 29 29 29 29 30 30 30 31 31 31 32 33 34 35 36 37 37 37 37 38 39 39 41 43
34 34 35 35 34 33 33 32 32 32 31 31 31 30 30 30 31 31 30 31 31 31 31 32 32 32 32 33 33 33 34 35 36 37 37 38 39 40 40 40 41 42 43 44
35 35 35 35 35 35 34 34 34 33 33 33 33 33 33 33 33 33 33 33 33 33 33 33 34 34 34 35 35 36 37 37 38 39 39 39 40 41 41 42 43 44 45 46
35 34 34 35 35 35 35 35 35 35 35 35 35 35 35 35 36 36 36 36 36 36 36 36 36 36 37 37 37 38 39 39 40 40 41 42 42 43 44 45 46 47 48 49
34 34 34 34 34 34 35 35 35 36 36 37 36 36 37 37 37 37 38 38 38 38 38 38 39 39 39 39 40 41 41 42 42 43 44 44 45 46 47 48 49 50 51 51
34 34 34 34 34 34 35 35 35 36 37 37 38 38 38 38 38 39 39 39 40 40 40 41 41 41 41 42 42 43 43 44 44 45 46 46 47 48 49 50 51 52 53 53
34 34 34 34 35 35 35 35 36 36 36 37 38 38 38 39 39 40 40 40 41 41 41 42 42 42 43 43 44 44 45 46 46 47 47 48 49 50 51 52 52 53 54 54
34 35 35 35 35 36 36 37 37 37 38 38 38 39 40 40 40 40 41 41 42 42 42 43 43 44 44 45 46 47 47 48 49 49 50 51 51 52 53 54 55 55 55 56
34 35 35 36 36 37 38 39 39 40 40 40 40 41 41 41 41 42 42 42 42 43 44 45 45 46 47 47 48 49 49 50 50 51 52 52 53 54 55 55 56 56 56 56
36 36 37 37 38 38 39 40 40 41 41 41 41 42 42 42 43 43 43 44 44 45 46 47 47 48 49 50 50 50 51 51 52 52 53 54 55 55 56 56 56 57 57 57
37 37 38 38 39 39 40 41 41 41 41 41 41 42 42 42 43 43 44 45 46 46 47 48 49 50 50 51 52 53 53 54 54 54 55 56 56 56 56 57 57 57 57 57

GEFSNGP_500_meanwind_162.txt.gz
Wind_Speed
12 11 11 11 11 11 12 12 12 12 13 13 12 12 13 13 13 14 14 14 15 15 15 15 15 16 15 15 15 15 15 14 13 13 12 12 11 10 10 10 10 10 10 10
11 11 11 11 11 11 11 12 13 13 12 13 12 12 12 13 13 13 15 15 15 15 15 15 15 16 16 16 16 16 16 15 14 14 13 13 13 12 12 12 12 12 12 12
11 11 10 10 10 10 11 12 13 12 12 12 12 12 12 12 12 13 14 15 16 16 15 15 15 16 16 16 16 16 16 16 15 15 15 15 15 14 14 14 14 14 14 14
12 11 11 10 10 10 11 11 12 11 12 12 12 11 11 12 12 12 13 14 15 15 15 16 16 17 17 17 17 16 16 16 16 16 16 16 16 16 16 16 16 16 16 16
14 13 12 11 11 11 11 11 11 11 12 12 12 12 12 12 12 12 13 13 14 15 15 16 17 17 17 17 17 17 18 18 17 17 17 17 18 18 18 18 18 18 18 18
15 14 13 11 12 12 11 11 11 12 11 12 12 12 12 12 12 11 12 12 12 13 14 16 16 17 17 17 18 18 18 18 19 19 19 19 19 20 20 20 20 20 19 19
16 15 14 13 12 12 12 12 13 13 12 12 12 13 13 13 13 12 13 12 12 13 13 15 15 16 15 16 18 18 19 19 20 20 20 20 20 20 20 20 20 20 21 21
18 17 15 14 14 13 13 13 13 13 13 13 13 13 13 13 13 13 13 13 13 14 15 15 16 16 17 18 19 19 19 20 20 21 21 21 21 21 21 21 21 22 22 22
20 18 16 16 15 15 14 14 13 13 13 13 13 14 15 14 14 14 15 15 15 16 17 17 17 18 18 19 19 19 20 20 21 21 21 21 21 22 22 22 22 22 23 23
21 20 19 17 17 17 16 15 15 15 15 15 15 15 16 16 15 15 16 16 17 17 17 17 17 18 19 19 19 20 20 21 22 22 22 22 22 22 23 23 24 24 25 25
23 21 21 19 18 18 18 17 16 17 16 16 16 16 16 17 17 16 16 16 17 17 17 17 17 18 19 20 20 21 21 21 22 22 22 23 23 24 24 25 25 26 27 28
23 22 22 21 21 20 19 19 18 18 18 17 17 17 17 18 18 17 17 17 18 18 18 19 19 19 20 21 21 21 21 22 23 23 24 24 25 25 26 26 27 28 28 29
25 24 24 23 22 22 21 20 20 20 19 19 19 19 19 19 20 20 19 20 20 20 20 21 21 21 21 21 21 22 22 23 23 24 25 26 26 27 27 28 28 29 30 31
27 26 25 24 24 24 23 21 21 20 20 20 20 20 21 21 21 21 21 21 21 22 22 22 22 22 22 22 23 24 24 24 24 25 26 27 27 28 29 29 30 31 32 32
27 27 26 26 25 25 24 22 22 21 20 21 21 22 22 22 23 23 22 23 23 23 23 24 24 25 24 25 25 25 26 26 27 28 28 29 30 31 31 31 32 32 33 34
29 28 28 27 26 26 25 24 23 23 23 23 23 23 23 23 23 23 23 23 24 24 24 24 24 25 26 26 26 27 27 28 29 29 30 31 32 32 33 33 34 35 35 35
31 29 28 28 28 27 27 26 26 25 25 25 25 25 25 25 25 25 25 25 26 26 25 25 25 25 26 26 26 27 27 28 29 30 30 31 32 33 34 35 36 37 37 38
31 30 29 29 29 28 28 28 28 28 28 28 27 27 27 27 27 28 28 28 27 27 27 27 27 27 27 27 28 28 29 29 30 31 32 32 33 34 34 35 36 37 38 40
32 31 29 29 29 29 29 29 29 30 30 30 30 30 30 30 30 30 30 29 29 29 29 30 30 30 29 30 30 31 31 32 33 33 34 34 35 36 37 38 39 41 41 42
32 31 31 30 30 29 29 29 29 30 30 30 31 31 31 31 31 31 31 31 31 31 31 31 32 32 32 33 33 33 34 35 35 36 37 38 38 39 40 41 42 44 45 45
33 33 32 32 31 31 31 31 31 31 31 31 31 31 32 32 33 33 33 33 33 33 33 34 34 34 35 35 36 36 36 37 37 38 39 39 40 42 43 44 45 46 47 47
34 34 33 33 33 33 32 32 32 32 32 31 31 32 32 32 32 32 33 34 34 35 35 36 36 37 37 37 38 38 38 39 39 40 41 42 43 44 45 46 47 48 48 49
35 35 34 34 34 34 34 33 33 32 32 31 31 32 32 32 32 32 32 33 35 36 36 37 37 38 38 39 39 40 41 41 42 43 44 45 46 46 47 48 49 50 51 52
35 35 35 35 35 34 34 34 33 33 32 32 32 32 32 33 33 34 34 34 35 35 36 37 38 38 39 40 40 41 42 43 44 45 46 46 47 48 49 50 51 52 53 54
35 35 35 36 36 36 35 35 35 34 33 33 33 33 34 34 35 35 35 36 36 37 38 38 39 40 41 42 42 43 44 45 46 47 48 48 49 50 51 52 53 54 54 55
36 36 36 36 36 36 36 36 36 35 35 35 35 35 35 36 36 36 37 38 38 38 39 40 40 41 42 43 44 45 46 47 48 49 50 51 52 53 53 54 55 55 56 56
35 35 35 36 36 36 36 36 36 36 36 36 36 36 37 37 38 38 39 39 40 41 41 42 42 43 44 45 46 46 47 48 49 50 51 52 53 54 54 55 55 56 56 56